Regional Weather Roundup
Issued by NWS Northern Indiana

Home | Current Version | Previous Version | Text Only | Print | Product List | Glossary On
Versions: 1 2 3 4 5 6 7 8 9 10 11 12 13 14 15 16 17 18 19 20 21 22 23 24 25 26 27 28 29 30 31 32 33 34 35 36 37 38 39 40 41 42 43 44 45 46 47 48 49 50
000
ASUS43 KIWX 231310
RWRIWX

KIWX WEATHER ROUNDUP
NATIONAL WEATHER SERVICE NORTHERN INDIANA
900 AM EDT SAT AUG 23 2014

NOTE: "FAIR" INDICATES FEW OR NO CLOUDS BELOW 12,000 FEET WITH NO
SIGNIFICANT WEATHER AND/OR OBSTRUCTIONS TO VISIBILITY.

* THESE STATIONS ARE NOT UNDER NWS QUALITY CONTROL. THEY ALSO MAY NOT
  REPORT WEATHER SUCH AS PRECIPITATION OR FOG.

INZ001>027-231400-
NORTHERN INDIANA

CITY           SKY/WX    TMP DP  RH WIND       PRES   REMARKS
VALPARAISO     MOSUNNY   74  72  93 CALM      30.00R
MICHIGAN CITY* MOSUNNY   72  72 100 CALM      30.00R
LAPORTE*       FOG       71  71 100 CALM      30.01R VSB<1/4
KNOX*          MOSUNNY   72  71  94 CALM      29.99R
SOUTH BEND     FOG       74  73  97 SE7       30.01R VSB 1
GOSHEN         CLOUDY    75  72  90 SE6       30.01R FOG
MONTICELLO*    SUNNY     73  73  99 CALM      29.99R FOG
LOGANSPORT*    FOG       72  70  94 CALM      30.01S VSB 3/4
ROCHESTER*     SUNNY     77  77 100 CALM      30.01R
WARSAW*        CLOUDY    72  72 100 SE3       30.01R FOG
ANGOLA*        CLOUDY    72  63  73 SE6       30.03R
FORT WAYNE     FOG       72  72 100 E6        30.02R VSB 1/2
HUNTINGTON*    CLOUDY    73  73 100 CALM      30.01R FOG
PERU/GRISSOM   SUNNY     74  74 100 SE2       30.01R
MARION*        FOG       71  70  98 CALM      30.02R VSB 1/4

$$
INZ028>050-231400-
CENTRAL INDIANA

CITY           SKY/WX    TMP DP  RH WIND       PRES   REMARKS
LAFAYETTE      PTSUNNY   74  71  91 CALM      29.99R
KOKOMO*        SUNNY     73  72  94 CALM      30.01R
MUNCIE*        SUNNY     74  72  93 CALM      30.01S
INDIANAPOLIS   PTSUNNY   75  71  87 E5        30.00

$$
MIZ043>046-050>051-056>058-064>065-071>073-077>080-231400-
SOUTHWEST LOWER MICHIGAN

CITY           SKY/WX    TMP DP  RH WIND       PRES   REMARKS
BATTLE CREEK   SUNNY     73  67  81 E7        30.03S
BENTON HARBOR  SUNNY     74  72  93 SE8       29.99R FOG
COLDWATER*     SUNNY     73  69  90 SE6       30.02S FOG
HILLSDALE*     PTSUNNY   71  68  92 E5        30.04S
HOLLAND        PTSUNNY   72  68  87 E7        30.02R
GRAND RAPIDS   MOSUNNY   69  67  93 E12       30.04R
KALAMAZOO      PTSUNNY   73  69  87 E5        30.03R FOG
STURGIS*       FOG       70  70 100 E5        30.02R VSB 3/4
THREE RIVERS*  CLOUDY    72  71  98 E5        30.02R FOG

$$
OHZ001>008-015>018-024>025-231400-
NORTHWEST OHIO

CITY           SKY/WX    TMP DP  RH WIND       PRES   REMARKS
WAUSEON*       FAIR      70  66  88 NE5       30.03S
DEFIANCE       CLOUDY    70  68  93 E5        30.02S FOG
FINDLAY        FOG       71  69  93 E8        30.02R VSB 3/4
TOLEDO EXPRESS PTSUNNY   71  66  84 NE6       30.02S
TOLEDO METCALF CLOUDY    72  67  84 NE5       30.04R
LIMA           CLOUDY    73  68  84 SE6       30.02S HAZE

$$
&&


USA.gov is the U.S. government's official web portal to all federal, state and local government web resources and services.